#timestamp,LO_Frequency,Hit 
1503280815.9,286046982.4,N
1503280835.7,286046983.5,N
1503280855.5,286046985.2,N
1503280875.4,286046988.9,N
1503280895.2,286046991.0,N
1503280915.0,286046987.0,N
1503280915.9,286046987.0,N
1503280935.8,286046988.8,N
1503280955.6,286046991.2,N
1503280975.4,286046987.7,N
1503280995.2,286046984.0,N
1503281015.1,286046982.8,N
1503281016.0,286046982.8,N
1503281035.8,286046989.8,N
1503281055.6,286046985.9,N
1503281075.5,286046981.7,N
1503281095.3,286046977.6,P
1503281115.1,286046987.1,N
1503281135.9,286046988.7,N
1503281155.7,286046990.0,N
1503281175.5,286046986.8,N
1503281195.4,286046984.2,P
1503281215.2,286046996.1,P
1503281235.0,286046997.0,N
1503281235.9,286046997.0,N
1503281255.8,286046998.9,N
1503281275.6,286047000.5,N
1503281295.4,286047001.9,N
1503281315.3,286047002.5,N
1503281335.1,286047005.9,N
1503281355.8,286047007.2,N
1503281375.7,286047006.1,N
1503281395.5,286047008.6,N
1503281415.3,286047008.0,N
1503281435.2,286047009.7,N
1503281455.9,286047011.2,N
1503281475.7,286047015.6,N
1503281495.5,286047014.8,N
1503281515.4,286047019.9,N
1503281535.2,286047016.4,N
1503281555.0,286047019.9,N
1503281555.9,286047019.9,N
1503281575.8,286047014.5,N
1503281595.6,286047018.5,N
1503281615.4,286047016.8,N
1503281635.3,286047018.1,N
1503281655.1,286047019.0,N
1503281656.0,286047019.0,N
1503281675.8,286047023.0,N
1503281695.7,286047022.7,N
1503281715.5,286047019.7,N
1503281735.3,286047024.9,N
1503281755.2,286047022.1,N
1503281775.9,286047024.6,N
1503281795.7,286047023.0,N
1503281815.6,286047025.4,P
1503281835.4,286047014.7,N
1503281855.2,286047014.2,N
1503281875.1,286047015.3,P
1503281876.0,286047015.3,P
1503281895.8,286046996.8,P
1503281915.6,286046995.3,N
1503281935.5,286046997.6,N
1503281955.3,286046993.9,N
1503281975.1,286046995.1,N
1503281995.9,286046997.9,N
1503282015.7,286046995.1,N
1503282035.5,286046995.6,N
1503282055.4,286046992.0,N
1503282075.2,286046993.7,N
1503282095.0,286046993.6,N
1503282095.9,286046993.6,N
1503282115.7,286046994.7,N
1503282135.6,286046995.5,N
1503282155.4,286046995.5,N
1503282175.2,286046996.5,N
1503282195.1,286046999.6,N
1503282196.0,286046999.6,N
1503282215.8,286046997.0,N
1503282235.6,286046997.9,N
1503282255.5,286046997.5,N
1503282275.3,286046996.1,N
1503282295.1,286046992.4,N
1503282315.9,286046992.3,N
1503282335.7,286046994.7,N
1503282355.5,286046992.3,N
1503282375.4,286046996.4,N
1503282395.2,286046996.0,N
1503282415.0,286046992.6,N
1503282415.9,286046992.6,N
1503282435.8,286046993.9,N
1503282455.6,286046993.9,N
1503282475.4,286046988.5,P
1503282495.3,286046998.2,N
1503282515.1,286046999.7,N
1503282516.0,286046999.7,N
1503282535.8,286047000.4,N
1503282555.7,286047002.3,N
1503282575.5,286047001.0,N
1503282595.3,286046997.9,N
1503282615.1,286046995.3,N
1503282635.9,286046998.0,N
1503282655.7,286046997.7,N
1503282675.5,286046997.3,N
1503282695.4,286046998.1,N
1503282715.2,286047001.1,N
1503282735.0,286046996.3,N
1503282735.9,286046996.3,N
1503282755.8,286046990.1,P
1503282775.6,286046993.1,N
1503282795.4,286046990.4,P
1503282815.3,286046988.7,P
1503282835.1,286046994.1,N
1503282855.9,286046991.0,P
1503282875.7,286046990.9,P
1503282895.5,286046998.5,P
1503282915.4,286046997.1,N
1503282935.2,286046995.6,N
1503282955.0,286046994.4,N
1503282955.9,286046994.4,N
1503282975.8,286046991.8,P
1503282995.6,286046999.5,N
1503283015.4,286046998.7,N
1503283035.3,286046999.2,N
1503283055.1,286046997.3,N
1503283056.0,286046997.3,N
1503283075.8,286046996.5,N
1503283095.7,286046996.8,N
1503283115.5,286046997.6,N
1503283135.3,286046994.2,N
1503283155.2,286046992.1,P
1503283175.9,286046996.1,N
1503283195.7,286046996.8,N
1503283215.5,286046997.2,N
1503283235.4,286046998.7,N
1503283255.2,286046999.5,N
1503283275.0,286046997.7,N
1503283275.9,286046997.7,N
1503283295.8,286046993.4,P
1503283315.6,286046997.6,N
1503283335.4,286046998.8,N
1503283355.3,286046996.7,N
1503283375.1,286046997.6,N
1503283395.8,286046997.7,N
1503283415.7,286046998.0,N
1503283435.5,286046994.0,P
1503283455.3,286046996.2,N
1503283475.2,286046998.7,N
1503283495.0,286047005.9,P
1503283495.9,286047005.9,N
1503283515.8,286047013.3,N
1503283535.6,286047013.1,N
1503283555.4,286047013.2,N
1503283575.2,286047014.7,N
1503283595.1,286047014.5,N
1503283596.0,286047014.5,N
1503283615.8,286047018.3,P
1503283635.7,286047007.9,N
1503283655.5,286047013.6,P
1503283675.3,286047015.2,P
1503283695.2,286047002.1,N
1503283715.9,286047001.7,N
1503283735.7,286047002.2,N
1503283755.6,286047001.1,N
1503283775.4,286047001.7,N
1503283795.2,286047003.1,N
1503283815.0,286047005.7,N
1503283815.9,286047005.7,N
1503283835.8,286047002.9,N
1503283855.6,286047004.4,N
1503283875.4,286047006.1,N
1503283895.3,286047005.2,N
1503283915.1,286047004.0,N
1503283935.8,286047004.3,N
1503283955.7,286047003.8,N
1503283975.5,286047005.8,N
1503283995.3,286047007.5,N
1503284015.2,286047005.1,N
1503284035.9,286047007.9,N
1503284055.7,286047009.0,N
1503284075.6,286047009.1,N
1503284095.4,286047010.3,N
1503284115.2,286047009.5,N
1503284135.0,286047008.1,N
1503284135.9,286047008.1,N
1503284155.8,286047008.2,N
1503284175.6,286047007.3,N
1503284195.4,286047008.9,N
1503284215.3,286047010.3,P
1503284235.1,286046998.3,N
1503284255.8,286046999.7,N
1503284275.7,286047001.4,N
1503284295.5,286047003.6,N
1503284315.3,286047001.4,N
1503284335.2,286047003.7,N
1503284355.9,286047005.8,N
1503284375.7,286047008.0,N
1503284395.6,286047007.2,N
